Regional Weather Roundup
Issued by NWS

Home | Current Version | Previous Version | Graphics & Text | Print | Product List | Glossary On
Versions: 1 2 3 4 5 6 7 8 9 10 11 12 13 14 15 16 17 18 19 20 21 22 23 24 25 26 27 28
000
ASUS45 KSLC 051110
RWRUT

UTAH REGIONAL WEATHER ROUNDUP
NATIONAL WEATHER SERVICE SALT LAKE CITY UT
400 AM MST MON DEC 05 2016

UTZ001>011-023>025-051200-

NORTHERN UTAH

CITY           SKY/WX    TMP DP  RH WIND       PRES   REMARKS
BRIGHAM CITY     N/A     33  11  39 N15G23    29.89R WCI  23
HILL AFB       CLOUDY    32  18  55 N23       29.87R WCI  19
LOGAN          CLOUDY   N/A N/A N/A NW18      29.86R
OGDEN          CLOUDY    32  21  64 N18G35    29.86R WCI  20
SALT LAKE CITY CLOUDY    36  27  69 NW30      29.86R WCI  23
TOOELE VALLEY  MOCLDY    36  30  80 NW16G23   29.88R WCI  26
WENDOVER       MOCLDY    32  21  64 NW30G37   29.89R WCI  18
HEBER CITY     CLOUDY    34  27  75 CALM      29.73S
WEST JORDAN    CLOUDY    35  33  90 NW23G31   29.86R WCI  23

$$

UTZ011>015-024>027-051200-

CENTRAL/NORTHEAST UTAH

CITY           SKY/WX    TMP DP  RH WIND       PRES   REMARKS
PROVO AIRPORT  CLOUDY    39  25  56 N18       29.81R WCI  30
MOAB/CANYONLAN MOCLDY    27  17  66 VRB5      29.84F WCI  22
DELTA          CLOUDY    34  18  51 CALM      29.82S
PRICE          CLOUDY    28  16  60 CALM      29.82F
ROOSEVELT      CLOUDY    28  21  74 SW7       29.78F WCI  21
VERNAL         CLOUDY    22  15  75 W5        29.75F WCI  16

$$

UTZ013>016-019>022-027-051200-

SOUTHERN UTAH

CITY           SKY/WX    TMP DP  RH WIND       PRES   REMARKS
BRYCE CANYON   PTCLDY    29  16  58 W13       29.90F WCI  19
CEDAR CITY     PTCLDY    32  15  49 SW5       29.89F WCI  27
MILFORD        PTCLDY    38  10  31 S18       29.86F WCI  28
ST GEORGE      CLOUDY    34  16  47 CALM      29.96F
HANKSVILLE     MOCLDY    21  18  86 N3        29.88F
BLANDING       MOCLDY    31  16  54 CALM      30.00F

$$

REGIONAL REPORTS     COLORADO/ARIZONA

CITY           SKY/WX    TMP DP  RH WIND       PRES   REMARKS
CRAIG, CO      CLOUDY    32  15  49 W9        29.72F WCI  24
GRAND JUNCTION CLOUDY    25  21  85 NW6       29.83F WCI  18
RIFLE, CO      CLOUDY    27  20  75 W5        29.82F WCI  22
MONTROSE, CO   CLOUDY    29  20  69 E6        29.85F WCI  23
CORTEZ, CO     CLOUDY    20  16  84 E7        29.93F WCI  11
COLORADO CITY    N/A     23  21  93 E3        29.96F
PAGE, AZ       CLEAR     33  15  47 CALM      29.91F
GRAND CANYON   PTCLDY    19  16  88 VRB3      29.97F
KINGMAN, AZ    PTCLDY    39  11  31 E3        29.92S
FLAGSTAFF, AZ  CLEAR     23  16  74 CALM      29.98F

$$

REGIONAL REPORTS    NEVADA/IDAHO/WYOMING

CITY           SKY/WX    TMP DP  RH WIND       PRES   REMARKS
LAS VEGAS, NV  MOCLDY    43  15  32 S6        29.92S
ELY, NY        PTCLDY    29  17  61 CALM      29.91F
ELKO, NV       FLURRIES  29  19  66 NE14      29.99R WCI  18
POCATELLO, ID  CLEAR     23  17  78 SW22G32   29.90R WCI   8
BURLEY, ID     CLEAR     22  16  78 W14G23    29.95R WCI   9
FORT BRIDGER,  FLURRIES  32  31  96 W15G24    29.70S WCI  22
EVANSTON, WY   FLURRIES  29  22  75 W23       29.73R WCI  15
ROCK SPRINGS,  CLOUDY    30  26  85 SW17G29   29.63F WCI  18

$$




USA.gov is the U.S. government's official web portal to all federal, state and local government web resources and services.